Theta_e
304 304 304 303 303 302 301 301 301 300 300 301 302 303 302 303 301 301 300 299 299 298 298 299 305 309 310 311 313 316 321 320 320 321 321 320 320 322 323 323 325 327 332 332 335
303 303 302 302 302 301 301 301 302 303 302 302 304 303 302 303 301 300 304 302 300 301 302 302 302 303 307 309 311 313 313 317 317 316 318 319 320 320 322 324 325 326 330 333 335
301 302 300 301 299 299 300 302 302 300 302 302 304 302 302 301 300 303 307 304 304 305 307 302 305 304 307 307 309 310 312 311 314 314 314 315 318 320 322 323 324 325 326 335 337
301 302 303 302 301 301 301 303 306 303 299 302 303 302 301 301 299 301 303 302 302 304 304 303 305 305 304 306 307 308 308 309 309 310 310 314 316 318 321 322 323 323 324 329 338
303 304 303 302 299 300 301 302 302 302 302 302 302 302 302 302 301 298 300 302 302 302 301 299 299 303 304 304 306 307 306 307 307 307 308 309 313 316 318 320 321 323 324 324 332
304 304 304 303 301 301 303 302 302 302 302 302 304 303 302 302 299 298 298 298 298 299 300 300 300 300 303 304 303 305 304 305 305 306 307 308 310 313 317 321 322 323 323 324 329
303 303 302 300 301 302 302 302 303 302 301 302 302 302 303 302 300 299 299 300 300 300 299 299 300 301 302 303 303 304 304 304 304 304 306 310 310 311 314 317 321 323 323 324 325
299 299 301 301 301 302 302 303 303 303 301 300 302 303 302 301 298 298 301 301 301 301 301 300 299 301 302 301 302 303 303 303 302 302 305 310 307 309 314 318 321 323 324 323 323
302 302 302 303 303 303 303 303 303 302 299 298 304 302 301 298 299 300 300 301 301 301 301 301 301 301 301 302 300 300 298 300 303 303 305 309 306 307 309 315 320 322 324 322 322
305 305 305 304 304 303 302 301 302 300 298 299 300 299 297 298 298 298 298 299 300 301 301 301 301 301 301 301 300 296 299 300 299 303 305 307 310 311 312 320 321 322 323 321 321
303 302 302 302 302 301 301 302 299 297 298 297 296 297 295 298 298 300 300 300 302 300 302 302 302 301 300 300 300 298 298 299 299 299 302 305 305 306 309 313 320 321 321 321 321
300 300 299 300 301 302 302 299 298 297 296 295 295 296 298 298 298 300 300 302 302 302 302 301 302 301 300 301 300 300 296 295 299 302 302 305 308 309 308 315 319 321 320 320 321
302 300 300 303 303 302 300 299 299 297 294 294 297 298 299 300 300 300 302 302 300 301 302 303 303 302 301 302 302 301 300 298 299 303 305 309 310 311 312 316 319 319 320 322 322
302 302 303 303 302 301 300 300 298 295 284 291 296 299 299 298 300 302 303 303 303 303 304 303 303 303 303 302 303 303 301 300 300 303 306 308 313 315 315 317 318 317 318 319 320
304 303 304 302 302 301 300 298 295 297 288 293 296 297 297 297 301 305 304 305 307 305 302 305 306 304 304 303 302 302 301 301 302 306 308 311 314 316 317 318 316 311 309 314 316
304 303 302 301 301 300 299 295 297 288 285 288 293 295 293 296 300 303 304 305 306 306 306 304 303 303 303 302 303 302 304 304 305 305 310 309 314 316 316 317 312 307 305 308 313
303 302 301 301 299 298 295 296 290 287 287 289 293 295 293 294 299 301 303 303 305 305 297 303 307 307 305 305 305 305 308 308 309 310 309 313 314 308 307 312 308 304 303 305 308
301 301 300 297 297 294 294 291 286 281 283 292 294 294 292 298 298 299 299 302 303 304 304 302 307 307 308 310 310 308 308 311 314 313 313 309 310 307 302 301 299 299 300 301 303
300 297 296 295 294 294 296 284 283 291 293 294 294 288 288 296 297 295 295 301 304 304 305 304 307 306 306 306 310 311 310 308 311 307 309 308 306 306 303 301 299 298 298 299 302
298 297 296 295 294 296 289 288 290 293 293 294 292 292 289 293 296 293 295 300 303 303 302 304 307 306 305 306 307 308 307 310 312 312 311 312 310 309 306 303 301 299 297 297 300
299 297 295 295 295 294 284 281 292 293 293 294 295 293 295 295 297 295 297 301 302 303 303 305 306 308 308 309 309 308 309 309 308 310 312 312 309 305 305 305 303 300 298 297 298
297 290 295 298 292 280 278 283 292 293 294 295 295 295 296 296 297 298 299 301 301 300 304 304 306 308 309 308 307 307 307 307 311 309 308 308 306 301 299 301 301 300 299 298 299
296 296 295 297 284 287 289 292 293 294 294 295 296 296 297 295 298 298 299 299 300 299 302 303 302 305 307 306 306 306 304 304 305 307 308 309 306 300 297 296 298 298 299 299 300
297 289 295 295 291 285 288 291 290 294 294 295 295 295 296 295 296 297 298 298 298 297 300 302 304 302 307 305 303 302 303 303 302 304 307 307 305 302 299 297 295 296 297 298 299
296 290 293 286 289 288 290 293 292 290 294 295 291 296 296 296 295 295 297 296 297 295 297 301 302 303 301 301 302 300 299 302 301 296 302 305 305 302 299 296 295 295 295 297 298
296 295 295 294 293 292 290 294 295 294 294 293 295 295 296 295 295 296 295 295 296 295 295 297 303 298 299 297 301 301 299 299 300 299 300 301 302 299 297 297 296 296 296 296 295
296 296 297 294 292 288 290 294 294 294 294 295 295 295 294 294 294 294 294 294 294 294 293 293 293 295 300 293 295 300 298 296 299 298 297 300 300 299 299 298 297 297 297 296 296
Wind_Speed
6 8 10 11 12 12 13 14 15 15 14 14 14 15 14 17 19 24 23 14 15 10 9 10 11 10 7 7 9 6 7 18 27 23 15 9 7 19 20 20 19 13 14 15 26
8 9 10 11 11 11 12 13 13 15 16 16 15 16 14 18 24 31 4 3 0 3 7 9 7 8 6 3 6 8 9 19 7 9 4 14 21 13 10 14 12 15 17 18 25
11 11 11 12 13 13 14 14 14 13 12 11 14 14 14 19 23 4 7 2 5 4 8 7 6 6 3 9 6 5 19 13 18 17 18 16 18 25 13 12 10 8 11 13 30
8 10 12 15 15 13 13 12 14 14 13 13 13 14 14 18 6 2 8 4 1 5 4 1 5 3 4 5 14 10 19 10 11 20 17 12 18 17 23 22 15 16 7 9 29
9 11 15 15 15 13 11 13 14 14 14 13 13 13 15 13 21 17 17 18 19 22 23 21 15 9 6 6 11 12 12 13 17 24 20 23 22 15 30 27 27 30 22 20 29
12 15 16 16 13 12 15 15 15 15 15 15 13 13 14 21 17 7 8 12 12 14 13 9 11 16 9 7 9 7 11 16 14 19 16 19 23 18 13 16 27 27 31 24 23
16 17 19 17 15 15 14 14 16 17 16 15 15 14 19 31 23 21 24 25 24 25 23 19 15 15 6 3 16 15 12 13 16 14 9 11 18 30 21 33 21 24 31 24 18
15 13 13 12 13 14 16 19 20 19 21 19 14 12 16 20 22 15 11 14 13 11 15 16 23 18 23 14 6 4 5 14 5 9 9 10 25 20 13 25 25 22 26 24 14
11 14 15 16 18 18 18 19 19 21 21 12 10 8 12 11 11 12 12 16 16 19 19 13 15 21 10 14 9 6 9 6 6 12 6 14 13 18 33 27 26 26 28 24 13
18 19 19 18 16 16 17 18 19 16 10 5 10 5 12 6 13 23 25 21 22 18 13 14 12 8 12 9 18 8 9 11 11 5 14 16 16 8 24 21 21 24 27 20 16
20 21 20 19 17 15 14 13 6 5 4 8 10 16 27 19 20 24 18 16 13 8 8 14 8 17 25 22 10 6 9 9 6 15 9 14 18 21 25 19 18 19 25 22 16
21 20 19 16 12 10 9 6 2 7 12 14 15 18 19 19 14 19 13 5 6 9 11 5 21 26 15 14 18 13 7 10 12 11 11 13 14 11 16 18 24 21 16 13 17
11 8 7 7 7 6 5 3 4 9 3 9 7 10 8 11 9 21 7 6 7 8 14 16 24 14 20 17 20 21 19 17 12 3 16 4 10 11 13 17 17 21 21 15 14
3 4 4 4 4 4 4 4 9 9 5 6 3 3 7 15 7 12 13 8 6 7 10 13 20 16 14 24 18 20 24 18 15 6 10 14 5 9 17 14 13 14 19 19 12
2 2 3 2 2 3 4 7 7 3 4 9 6 8 21 5 13 1 9 8 9 13 3 6 6 15 15 21 22 15 15 22 18 16 15 15 4 4 14 16 8 10 15 18 17
3 5 5 1 5 4 5 6 2 6 5 9 8 9 9 5 4 9 7 9 14 9 5 13 6 12 8 14 20 13 10 16 11 9 7 13 9 7 13 12 11 9 15 15 17
10 5 4 2 2 4 5 2 5 5 4 10 6 9 5 6 6 3 9 8 5 7 5 5 3 2 7 11 15 16 7 6 7 5 5 8 14 3 8 6 14 13 13 14 14
9 5 2 1 2 4 3 5 6 3 5 5 6 14 2 7 4 7 8 7 2 4 4 3 3 2 7 6 4 13 9 3 6 6 4 4 4 3 6 19 21 20 18 15 16
8 6 3 3 2 3 2 5 6 3 5 8 11 6 6 4 2 6 3 3 4 5 5 4 3 2 3 2 2 6 7 1 2 2 4 3 4 2 7 12 16 15 15 14 15
7 5 7 5 4 2 5 3 1 3 6 4 4 1 3 6 7 5 4 3 8 3 4 4 5 3 3 4 6 2 5 3 3 4 4 5 7 3 4 9 9 10 13 11 15
4 2 7 4 3 5 3 4 2 5 6 3 4 4 5 5 3 4 5 4 5 8 10 5 3 5 0 6 2 3 2 2 2 3 3 4 4 7 3 8 10 9 13 12 15
3 2 6 3 4 4 2 3 4 4 4 4 4 4 3 5 5 3 5 4 14 16 8 3 3 3 3 3 1 3 4 3 1 3 4 3 3 8 8 7 12 13 15 12 13
5 3 7 1 3 2 2 1 3 3 2 3 3 1 4 3 5 4 5 8 14 11 8 7 4 3 6 3 3 6 8 5 5 3 7 3 3 5 8 11 14 13 13 10 11
5 2 5 8 7 7 3 2 1 3 3 2 4 5 7 3 2 6 8 5 21 13 15 3 6 4 6 4 4 6 18 10 4 4 8 8 7 6 7 9 11 11 11 10 8
3 1 3 0 3 4 3 1 3 4 1 2 5 4 4 4 6 5 6 8 9 21 12 4 7 9 9 6 9 17 18 20 12 2 6 8 10 6 6 7 8 9 10 10 11
6 7 5 5 8 4 2 0 2 3 0 3 2 8 5 3 3 5 8 6 4 12 10 8 3 5 6 11 15 17 23 18 14 10 11 11 10 4 12 14 14 11 10 10 9
8 15 7 2 2 3 2 2 1 2 3 5 4 4 4 3 9 15 12 15 9 8 5 5 3 5 5 9 6 10 13 13 5 8 2 6 3 3 8 12 13 9 9 9 9
Wind_Direction
339 334 335 334 334 333 331 331 329 325 322 322 326 328 339 329 322 307 306 294 294 269 254 265 237 254 282 269 243 240 244 237 233 237 239 235 244 248 258 270 283 267 259 252 209
303 300 307 308 308 311 318 320 319 318 320 321 327 326 328 315 309 311 347 315 257 250 245 260 269 256 286 273 250 214 241 245 246 236 275 257 252 258 248 249 259 279 258 257 207
280 291 305 321 293 308 315 317 310 310 299 308 309 316 324 312 313 185 111 83 105 176 246 245 266 272 261 249 239 265 243 260 276 309 317 320 307 238 231 245 239 258 291 223 190
321 312 309 313 306 308 312 305 303 313 313 306 311 311 312 302 295 198 197 221 150 153 169 285 248 222 230 223 227 250 261 277 288 287 303 303 318 304 248 241 250 230 261 250 208
300 300 302 306 305 299 309 312 311 311 306 305 302 305 308 283 264 278 258 259 263 272 275 273 253 242 225 235 247 251 265 268 268 278 284 290 282 294 281 274 250 246 257 280 229
295 292 296 303 307 304 312 310 309 307 307 304 298 297 288 266 289 298 283 267 260 277 279 249 239 240 259 246 242 271 282 275 273 270 286 269 273 299 270 270 247 239 241 259 240
288 287 291 292 294 299 302 306 309 312 306 295 290 286 269 256 274 278 281 274 268 262 259 258 248 237 225 276 260 272 276 281 266 261 254 249 266 244 271 267 268 236 227 244 256
294 296 298 298 298 298 301 304 307 307 300 294 286 273 259 273 288 273 266 275 273 273 262 264 244 257 232 248 312 270 268 253 232 215 223 193 252 252 278 236 250 253 233 246 288
308 300 297 298 295 299 303 302 305 302 297 285 267 229 262 279 275 286 272 266 267 268 270 262 239 231 234 226 240 210 246 256 283 223 232 192 259 263 265 253 233 236 236 246 285
295 288 289 293 297 300 301 303 307 297 294 256 240 242 257 284 293 292 293 278 277 268 244 219 207 204 210 198 224 198 200 232 234 231 211 231 245 251 275 219 217 225 231 246 281
288 287 284 289 297 302 303 313 321 289 247 234 270 256 281 298 295 295 307 286 257 209 207 189 203 214 214 211 219 199 226 255 237 232 242 237 238 239 251 263 210 212 223 244 265
278 278 281 282 290 297 304 332 346 319 306 292 265 265 283 291 289 307 300 230 206 226 214 211 225 219 211 216 215 219 206 238 264 269 226 249 260 248 237 248 218 208 214 215 237
288 288 278 279 280 278 290 303 323 336 291 296 298 288 301 294 272 296 269 243 221 233 224 216 237 209 201 213 213 213 214 222 224 303 226 191 267 240 258 239 209 208 213 212 226
307 276 266 265 260 267 293 314 328 331 64 286 350 306 313 315 277 298 277 239 212 252 243 241 257 225 207 213 194 216 211 222 228 237 243 177 255 214 212 188 194 162 174 176 184
231 230 225 186 272 267 312 318 322 340 18 310 311 318 321 227 301 216 306 238 259 267 220 248 227 193 206 211 202 236 194 207 210 227 234 191 231 171 174 182 167 130 137 156 172
166 131 122 211 267 289 312 320 335 43 270 330 330 336 351 303 281 298 306 263 267 284 236 265 288 186 200 196 197 193 198 196 217 252 226 214 211 165 177 177 144 132 137 142 150
133 133 145 230 278 309 318 300 32 107 339 318 336 335 333 289 309 321 322 315 333 320 343 311 175 191 232 187 202 199 173 173 195 173 240 198 195 15 334 196 143 130 115 131 139
135 135 141 206 317 323 314 49 65 242 262 308 312 315 304 347 321 315 320 342 345 303 294 317 333 217 169 231 196 191 219 233 193 172 136 339 80 30 36 81 95 106 126 123 122
136 129 87 49 3 343 285 50 202 244 317 322 322 17 320 344 2 351 301 299 304 318 319 305 285 254 317 308 187 147 204 187 237 25 100 115 97 125 89 80 89 92 96 97 104
143 128 38 21 5 1 70 141 266 255 315 305 335 61 305 313 336 15 315 279 315 320 292 285 294 352 350 281 68 262 131 187 216 131 86 83 65 22 89 106 99 96 92 101 109
155 138 9 11 13 51 113 211 269 274 300 299 312 298 272 302 285 294 286 284 323 308 309 293 272 313 227 21 5 339 3 11 121 16 122 122 74 340 66 120 125 121 123 118 107
148 58 4 12 36 50 103 174 263 310 282 268 256 253 263 304 282 294 302 281 331 322 332 302 320 27 343 264 325 332 321 260 69 83 41 69 68 10 52 82 116 124 119 127 124
125 112 29 100 105 67 238 296 256 327 330 326 296 338 281 280 306 286 301 283 335 338 342 333 14 15 338 21 28 33 341 330 83 65 38 88 105 53 58 67 79 102 117 128 116
145 65 49 60 82 124 143 280 302 269 273 300 283 302 326 303 244 304 308 301 327 343 350 23 14 77 73 33 327 26 17 19 82 75 81 59 106 74 70 82 78 79 104 115 122
145 120 121 215 18 117 197 226 355 349 295 332 342 350 355 305 319 317 315 312 321 351 356 55 36 52 62 32 51 54 32 39 57 9 76 98 80 59 56 73 90 99 89 100 114
145 134 110 97 116 102 339 255 341 336 70 316 321 319 321 267 310 310 333 10 344 327 348 346 32 344 24 4 42 50 24 23 37 46 70 86 69 32 89 97 88 95 100 101 104
145 133 133 66 120 88 232 225 292 27 267 264 295 318 313 269 290 285 278 279 273 314 313 12 36 14 336 346 16 34 0 359 15 13 128 74 93 84 60 53 52 67 77 85 88